Wind_Speed
58 59 59 59 59 59 59 59 59 59 59 60 60 60 60 59 59 59 58 58 57 57 56 56 55 55 54 54 53 53 52 52 52 51 51 51 50 50 50 50 50 49 49 49 49 49 48 48 48 47 46 46 45 45 44 43 43 42 42 41 41 40 40 40 40 40 40 40 40 40 40 40 40 40 40 40 40 40 40 40 41 41 40 40 39 37
60 60 60 60 60 60 60 60 60 60 60 60 60 59 59 59 59 58 58 57 57 56 56 55 55 54 54 54 53 53 52 52 52 52 51 51 51 51 50 50 50 50 50 49 49 49 48 48 47 47 46 45 44 44 43 42 42 41 40 40 39 39 39 39 39 39 39 39 39 39 39 40 40 40 40 40 40 40 41 41 41 41 40 40 38 36
60 60 60 60 60 60 60 60 60 60 59 59 59 59 58 58 58 57 57 57 56 56 55 55 55 54 54 54 53 53 53 53 52 52 52 52 51 51 51 51 50 50 50 50 49 49 48 47 47 46 45 44 43 42 41 41 40 39 39 38 38 38 38 38 38 38 38 38 38 38 39 39 39 39 39 40 40 40 41 41 41 41 40 40 38 38
59 59 59 60 60 60 60 60 59 59 59 58 58 58 58 57 57 57 56 56 56 55 55 55 55 54 54 54 54 53 53 53 53 52 52 52 52 51 51 51 51 50 50 49 49 48 47 46 45 44 43 42 42 41 40 39 39 38 38 37 37 37 37 37 37 37 37 37 38 38 38 38 38 38 39 39 39 40 40 41 41 40 40 39 39 38
57 58 58 58 58 58 58 58 58 58 57 57 57 57 56 56 56 56 56 55 55 55 55 55 54 54 54 54 54 53 53 53 52 52 52 52 51 51 51 50 50 49 49 48 48 47 46 45 44 43 42 41 40 40 39 38 38 37 37 37 37 37 37 37 37 37 37 37 37 37 38 38 38 38 38 38 39 39 39 40 40 40 39 38 38 38
56 56 56 57 57 57 57 57 57 56 56 56 55 55 55 55 55 55 55 55 55 54 54 54 54 54 54 53 53 53 52 52 51 51 51 51 50 50 50 49 49 48 48 47 46 45 44 44 43 42 41 40 40 39 38 38 37 37 37 37 37 37 37 37 37 37 37 37 37 37 38 38 38 38 38 38 38 38 39 39 39 39 38 38 38 37
56 56 56 56 56 56 56 56 56 55 55 55 55 54 54 54 54 54 54 54 54 54 54 54 53 53 53 53 52 52 51 50 50 50 49 49 49 49 48 48 47 47 46 46 45 44 43 43 42 41 40 40 39 39 38 38 38 37 37 37 37 37 37 37 37 37 37 38 38 38 38 38 38 38 38 38 38 38 38 38 38 38 38 37 37 36
57 57 56 57 57 57 57 56 56 55 55 55 55 54 54 54 54 54 54 54 54 54 54 53 53 53 52 52 51 51 50 49 49 49 48 48 48 48 47 47 46 46 45 45 44 44 43 42 42 41 40 40 40 39 39 38 38 38 38 38 38 38 38 38 38 38 38 38 38 39 39 39 38 38 38 38 38 38 37 37 37 37 37 37 36 36
59 59 58 58 58 58 58 57 57 56 56 56 55 55 55 54 54 54 54 54 54 54 54 53 53 53 52 52 51 50 50 49 49 48 48 48 48 47 47 47 46 46 45 45 44 44 43 42 42 41 41 41 40 40 39 39 39 39 39 39 39 39 39 39 39 39 39 39 39 39 39 39 38 38 38 38 37 37 37 37 36 36 36 36 35 35
62 61 61 60 60 60 60 59 58 58 58 57 57 56 56 55 55 55 54 54 54 54 54 54 54 53 52 52 51 51 50 49 49 49 48 48 48 47 47 47 46 46 45 45 45 44 44 43 43 42 42 41 41 41 40 40 40 40 40 40 40 40 40 40 40 40 40 40 40 40 40 39 39 38 37 37 37 37 36 36 35 35 35 35 35 35
64 64 63 63 63 62 62 62 61 60 60 60 59 59 58 57 56 56 56 55 55 55 55 54 54 54 53 53 52 51 51 50 50 49 49 49 49 48 48 48 47 47 46 46 45 45 45 44 44 43 43 42 42 42 41 41 41 41 41 40 40 40 40 40 40 40 40 41 40 40 40 39 38 38 37 37 37 36 36 35 35 35 35 35 35 35
67 66 66 66 65 65 64 64 63 63 63 62 62 61 60 59 59 58 58 57 57 56 56 56 55 55 54 54 53 53 52 51 51 50 50 50 50 49 49 49 48 48 47 47 47 46 46 45 45 44 44 43 43 42 42 42 42 41 41 41 41 41 41 41 41 41 41 41 41 40 40 39 38 37 37 36 36 35 35 35 34 34 34 35 35 34
69 69 68 68 68 67 67 66 66 65 65 64 64 64 63 62 61 61 60 59 59 58 58 57 57 56 56 55 55 54 53 53 52 52 51 51 51 50 50 50 50 49 49 48 48 47 47 46 46 45 45 44 44 43 43 43 42 42 42 42 42 42 42 42 42 41 41 41 41 40 40 39 38 37 37 36 36 35 34 34 34 34 34 34 33 32
71 71 70 70 70 69 68 68 68 67 67 66 66 66 65 65 64 63 62 61 61 60 60 59 59 58 57 57 56 56 55 54 54 53 52 52 52 52 51 51 51 51 50 50 49 49 48 47 47 46 46 45 45 44 44 43 43 43 43 43 43 42 42 42 42 42 41 41 41 40 40 39 38 37 36 36 35 34 34 33 33 33 33 32 32 31
72 72 72 72 71 70 70 69 69 69 68 68 68 67 67 67 66 65 64 63 63 62 62 61 60 60 59 58 58 57 57 56 55 54 54 53 53 53 53 52 52 52 51 51 50 50 49 48 48 47 47 46 45 45 44 44 44 44 43 43 43 43 42 42 42 42 41 41 41 40 39 38 38 37 36 35 35 34 33 33 32 32 32 31 31 30
73 73 73 73 72 71 71 70 70 70 70 69 69 69 68 68 67 67 66 66 65 64 63 63 62 61 60 60 60 59 59 58 57 56 55 55 54 54 54 54 53 53 52 52 51 51 50 49 49 48 47 47 46 46 45 45 44 44 44 43 43 43 42 42 42 41 41 41 40 39 39 38 37 37 36 35 34 34 33 32 32 32 31 31 31 31
74 74 74 73 73 72 71 71 71 71 71 70 70 70 69 69 69 68 68 67 67 66 65 64 63 62 62 61 61 60 60 59 59 58 57 56 56 55 55 54 54 54 53 53 52 52 51 50 50 49 48 47 47 46 46 45 45 44 44 44 43 43 42 42 42 41 41 40 40 39 38 37 37 36 36 35 34 33 33 32 32 31 31 31 31 31
75 75 74 74 74 73 72 72 72 72 71 71 71 71 70 70 70 69 69 68 68 67 66 65 64 64 63 62 62 62 61 61 60 59 58 57 57 56 55 55 55 54 54 53 53 52 52 51 50 50 49 48 48 47 46 46 45 45 44 44 43 43 42 42 41 41 40 40 39 38 38 37 36 36 35 35 34 33 32 32 32 32 32 31 31 31
76 75 75 75 75 74 73 73 73 72 72 72 72 72 72 71 71 70 70 69 69 68 67 66 66 65 64 63 63 63 62 62 61 61 59 58 58 57 56 56 55 55 54 54 53 53 52 52 51 50 50 49 48 48 47 46 46 45 45 44 44 43 42 42 41 40 40 39 38 38 37 37 36 36 35 34 34 33 32 32 32 32 32 32 31 31
77 76 76 75 75 75 75 74 73 73 73 73 73 73 73 72 71 71 70 70 69 69 68 67 67 66 65 64 64 63 63 62 62 61 60 59 59 58 57 56 56 55 55 54 54 53 52 52 51 51 50 49 49 48 48 47 46 46 45 44 44 43 42 42 41 40 39 39 38 37 37 36 36 35 35 34 34 33 33 32 32 32 32 32 32 31
78 77 77 76 76 76 76 75 74 74 74 74 74 74 73 72 72 71 71 70 70 70 69 68 68 67 66 65 64 64 63 62 62 62 61 60 60 59 58 57 56 56 55 54 54 53 53 52 52 51 51 50 49 49 48 47 47 46 45 45 44 43 42 41 41 40 39 38 38 37 36 36 35 35 35 34 34 33 33 32 32 32 32 32 32 31
79 79 78 77 77 77 76 76 75 75 75 75 75 74 73 72 72 71 71 71 70 70 70 69 68 68 67 66 65 64 64 63 62 62 62 61 60 60 59 58 57 56 55 55 54 54 53 53 52 52 51 51 50 49 49 48 47 47 46 45 44 43 42 41 41 40 39 38 38 37 36 36 35 35 35 34 34 33 33 32 32 32 32 32 31 30
82 81 80 79 78 78 77 77 76 76 76 75 75 75 74 72 72 72 72 71 71 71 70 70 69 68 68 67 66 65 64 64 63 62 62 61 61 60 59 58 57 57 56 55 54 54 54 53 53 52 52 51 50 50 49 48 48 47 46 45 44 43 42 42 41 40 39 39 38 37 37 36 36 35 35 34 34 33 33 32 32 32 32 31 31 30
84 83 82 81 81 80 79 79 78 77 77 76 76 75 74 73 72 72 72 72 72 72 71 70 70 69 68 67 66 66 65 65 64 63 62 61 61 60 60 59 58 57 57 56 55 54 54 54 53 53 52 51 51 50 50 49 48 47 47 46 45 43 42 42 41 40 39 39 38 38 37 37 36 36 35 35 34 33 33 32 32 32 31 31 30 29
87 86 85 84 83 83 82 81 80 79 79 78 77 76 75 74 74 73 73 73 73 72 71 71 70 69 68 67 67 66 66 65 64 63 63 62 61 61 60 59 58 58 57 56 55 55 54 54 54 53 52 52 51 51 50 49 48 48 47 46 45 44 43 42 41 40 40 39 38 38 37 37 37 36 35 35 34 33 33 32 32 31 31 31 30 29
89 88 88 87 86 85 85 84 83 82 81 80 79 78 77 76 75 75 74 74 73 73 72 71 71 70 69 68 67 67 67 66 65 64 63 63 62 61 61 60 59 58 58 57 56 55 55 54 54 53 52 52 51 51 50 50 49 48 47 46 45 44 43 42 41 40 40 39 39 38 38 37 37 36 36 35 34 33 33 32 32 31 31 30 30 29
91 90 90 89 89 88 87 86 85 84 83 82 81 81 80 79 78 77 76 75 74 73 73 72 72 70 69 68 68 67 67 66 66 65 64 63 63 62 61 60 59 59 58 57 56 56 55 55 54 53 53 52 52 51 50 50 49 48 47 46 45 44 43 42 41 41 40 39 39 38 38 37 37 36 36 35 34 33 33 32 32 32 31 31 30 29
92 91 91 91 90 90 89 88 88 87 86 85 84 83 82 81 80 79 78 77 76 75 74 74 73 71 70 69 68 68 67 67 66 66 65 64 63 62 62 60 60 59 58 58 57 56 56 55 54 54 53 52 52 51 51 50 49 48 47 46 45 44 43 42 41 41 40 40 39 39 38 38 37 36 36 35 34 34 33 33 32 32 31 31 30 30
92 92 91 91 91 90 90 89 89 88 87 87 86 85 85 84 83 82 81 79 78 76 76 75 74 73 71 70 69 68 68 67 67 67 66 64 64 63 62 61 60 59 59 58 57 57 56 55 55 54 53 53 52 51 51 50 49 49 48 47 45 44 43 42 42 41 40 40 39 39 38 37 37 36 36 35 35 34 34 33 33 32 32 31 31 30
92 91 91 91 91 91 90 90 89 89 88 88 87 87 86 86 85 84 83 82 80 78 77 77 76 74 73 71 70 69 68 68 67 67 66 65 64 64 62 61 60 60 59 58 58 57 57 56 55 54 54 53 52 52 51 50 49 49 48 47 46 45 44 43 42 41 41 40 39 38 38 37 37 36 36 35 35 34 34 33 33 32 32 32 31 31
91 91 91 91 91 90 90 90 90 89 89 89 88 88 87 87 86 86 85 83 81 80 79 78 77 76 74 73 71 70 69 68 67 67 67 66 65 65 63 61 61 61 60 59 58 57 57 56 56 55 54 54 53 52 51 50 50 49 48 47 46 45 44 43 42 41 41 40 39 38 38 37 37 36 36 35 35 35 34 34 33 33 32 32 32 31
91 90 90 90 90 90 89 89 89 89 89 89 88 88 88 87 87 86 85 84 83 81 80 79 78 77 76 74 73 71 70 69 68 67 67 66 66 65 64 62 61 61 60 59 59 58 57 56 56 55 55 54 53 53 52 51 50 49 48 47 46 45 44 43 42 41 40 40 39 38 37 37 37 36 36 35 35 35 34 34 33 33 33 32 32 32
90 89 89 89 89 89 89 89 89 89 89 89 88 88 88 87 87 87 86 85 84 83 81 81 80 79 77 76 74 73 71 70 69 68 67 67 66 66 64 63 62 61 61 60 59 58 58 57 56 55 55 54 54 53 52 51 50 49 48 47 46 45 44 43 42 41 40 39 39 38 37 37 36 36 36 35 35 35 35 34 33 33 33 33 33 32
89 88 88 88 88 88 88 88 88 88 88 88 88 88 87 87 87 87 86 86 85 84 83 82 81 80 78 77 75 74 72 71 70 69 68 67 67 66 65 63 62 61 61 60 59 59 58 57 56 55 55 54 54 53 52 51 50 49 48 47 46 45 43 42 41 41 40 39 38 37 37 36 36 36 35 35 35 35 35 34 34 33 33 33 33 32
88 87 87 87 86 86 86 87 87 87 87 87 87 87 87 87 87 87 86 86 85 84 83 83 82 80 79 78 77 75 74 73 71 70 69 68 67 66 65 64 63 62 61 60 59 58 57 57 56 55 55 54 54 54 53 51 50 49 48 47 45 44 43 42 41 40 39 39 38 37 36 36 36 35 35 35 35 35 34 34 34 33 33 33 33 33
86 86 86 85 85 85 85 85 86 86 86 86 87 87 87 87 87 87 87 86 86 85 84 83 82 81 80 79 78 76 75 74 73 71 70 69 68 67 65 65 64 62 61 60 59 58 57 57 56 56 55 54 54 53 53 52 50 49 48 46 45 44 43 42 41 40 39 38 38 37 36 36 35 35 35 35 35 34 34 34 34 34 34 33 33 33
85 84 84 84 83 83 83 84 84 84 85 85 85 86 86 86 86 87 87 86 86 85 85 84 83 82 81 80 78 77 76 75 74 73 71 70 69 67 65 65 64 63 61 60 59 58 57 57 56 56 55 54 54 53 52 51 50 49 48 46 45 44 43 42 41 40 39 38 37 36 36 35 35 35 35 35 34 34 34 34 34 34 34 34 33 33
83 83 82 82 81 81 81 82 82 83 83 83 84 84 85 85 86 86 86 86 86 85 85 84 83 82 81 80 79 78 78 76 75 74 72 70 69 67 66 65 64 62 61 60 59 58 57 56 56 55 55 54 54 53 52 51 50 49 48 46 45 44 43 41 40 40 39 38 37 36 35 35 35 35 35 34 34 34 34 34 34 34 34 34 34 33
81 81 80 80 80 79 79 79 80 81 81 82 82 83 84 84 85 85 85 85 85 85 85 84 83 82 82 81 80 79 78 77 76 74 73 71 69 67 65 64 63 62 61 60 59 58 57 56 56 55 54 54 53 53 52 51 50 48 47 46 45 44 42 41 40 39 38 37 36 36 35 35 34 34 34 34 34 33 33 34 34 34 34 34 34 34
79 78 78 78 77 77 77 77 78 78 79 80 81 82 82 83 83 84 84 84 85 84 84 84 83 82 82 81 80 79 78 77 76 75 73 71 69 67 65 64 62 61 60 59 59 58 57 56 56 55 54 53 53 52 51 50 49 48 47 45 44 43 42 41 40 39 38 37 36 35 34 34 34 34 34 34 33 33 33 34 34 34 34 34 34 34
75 75 75 75 75 74 74 75 75 76 77 78 78 79 80 81 82 82 83 83 83 83 83 83 82 82 81 80 80 79 78 77 76 74 73 71 69 67 65 63 62 61 59 58 58 57 57 56 55 54 54 53 53 52 51 50 49 48 46 45 44 43 42 40 39 38 37 36 35 35 34 34 34 33 33 33 33 33 33 34 34 34 34 34 34 34
71 71 71 71 71 71 72 72 73 73 74 75 76 77 78 79 79 80 81 81 82 82 82 81 81 81 80 80 79 78 77 76 75 74 72 70 68 66 64 63 61 60 59 58 57 57 56 55 55 54 53 53 52 51 50 49 48 47 45 44 43 42 41 40 39 38 36 36 35 34 34 33 33 33 33 33 33 33 33 34 34 34 35 34 34 34
67 67 67 68 68 68 69 69 70 70 71 72 73 74 75 76 77 78 79 79 80 80 80 80 80 80 79 79 78 78 77 76 75 73 72 70 68 66 64 62 61 59 58 57 56 56 55 55 54 54 53 52 51 50 50 48 47 46 45 44 43 41 40 39 38 37 36 35 35 34 33 33 32 32 32 32 32 32 33 34 34 35 35 34 34 34
62 63 63 63 64 64 65 65 66 67 68 69 70 71 72 73 74 74 75 76 77 78 78 78 78 78 78 78 78 77 76 75 74 73 71 69 67 65 63 62 60 59 57 56 55 55 54 53 53 53 53 52 51 50 49 48 46 45 44 43 42 41 39 39 38 37 36 35 34 33 33 32 32 32 31 31 32 32 33 34 34 35 35 34 34 34
57 58 59 59 60 60 61 62 63 64 65 66 67 67 68 69 70 70 71 73 74 74 75 76 76 76 77 77 77 76 75 74 73 72 70 69 67 65 63 61 59 58 56 55 55 54 53 52 52 52 52 51 51 50 49 47 46 44 44 43 41 40 39 38 38 37 36 35 34 33 32 31 31 31 31 31 31 32 33 34 35 35 35 34 34 34
53 54 54 55 55 56 57 58 59 60 61 62 62 63 64 64 65 66 67 68 69 70 71 72 73 73 74 75 75 74 74 73 72 70 69 67 66 64 62 60 58 57 55 54 54 53 52 52 52 52 51 51 50 50 48 47 45 44 43 42 41 40 39 38 38 37 36 35 33 32 31 31 31 31 32 32 32 32 33 34 35 35 35 34 34 34
49 49 50 51 51 52 53 54 54 55 56 57 58 58 59 59 60 60 61 62 63 64 66 67 68 70 71 72 73 72 72 71 70 69 68 66 64 63 61 59 58 56 55 54 53 52 51 51 51 51 50 50 50 49 48 46 45 43 42 41 40 39 39 38 37 36 35 34 33 32 31 31 32 33 33 33 33 33 34 34 35 35 34 34 34 33
45 46 46 47 48 48 49 49 50 51 52 52 53 53 53 54 54 54 54 54 55 56 59 60 63 66 68 69 70 70 70 69 69 68 67 65 63 61 60 58 57 56 54 53 52 51 50 50 50 50 50 50 49 48 47 46 44 43 42 41 40 39 39 38 37 36 34 33 32 32 32 33 34 35 35 34 34 34 34 34 34 34 34 34 33 33
43 43 44 44 45 45 45 46 46 47 47 48 48 48 48 49 48 48 46 45 45 47 50 52 56 60 64 65 67 68 68 67 67 66 65 64 62 60 59 57 56 55 54 52 51 50 49 49 48 48 48 49 49 48 46 45 44 43 42 41 40 39 39 38 37 35 33 32 32 32 33 35 36 37 37 36 35 34 34 34 34 34 34 33 33 33
41 42 42 42 43 43 43 43 43 43 44 44 44 44 44 44 44 42 41 39 39 40 43 46 49 52 57 60 63 64 65 65 64 64 63 62 60 59 57 56 55 54 52 51 50 49 48 48 47 47 47 47 47 47 46 45 44 43 42 41 40 39 39 38 36 34 33 32 33 34 35 37 38 39 38 37 35 34 34 34 34 34 33 33 33 32
40 41 41 41 41 41 41 41 41 41 41 41 41 41 41 40 40 39 38 37 37 38 41 44 45 46 49 53 57 60 62 62 62 61 61 60 59 57 56 54 53 52 51 50 49 48 47 47 46 46 46 46 46 45 45 44 43 42 41 41 40 40 39 38 36 34 33 33 34 36 37 39 40 40 38 36 35 34 33 33 33 33 33 33 33 32
Wind_Direction
273 273 273 273 273 273 273 273 273 273 273 274 274 274 274 274 274 274 274 274 274 274 274 274 275 275 275 275 275 275 275 275 274 274 274 274 274 274 274 273 274 274 274 274 274 275 275 276 276 276 277 277 277 277 277 278 278 278 278 279 279 279 280 280 280 281 281 282 282 283 284 285 286 287 288 288 288 288 287 287 286 286 286 286 284 281
272 273 273 273 273 273 273 273 273 273 273 273 273 274 274 274 274 274 274 274 274 274 274 274 274 274 274 274 274 274 274 274 274 274 274 274 274 273 273 273 273 273 274 274 274 275 275 275 276 276 276 276 276 276 277 277 277 277 278 278 278 278 279 279 279 280 280 281 282 283 284 285 286 286 287 287 287 288 288 287 287 287 286 286 283 280
272 272 272 272 273 273 273 273 273 273 273 273 273 273 273 273 273 273 274 274 274 274 274 274 274 274 274 274 274 274 274 274 274 274 273 273 273 273 273 273 273 273 273 274 274 274 274 275 274 274 275 275 275 275 275 275 276 276 276 277 277 277 277 278 279 279 280 281 282 283 284 285 285 286 286 287 287 287 288 288 288 287 287 286 284 281
272 272 272 272 272 272 272 272 272 272 272 272 272 272 273 273 273 273 273 273 273 273 273 273 273 273 273 273 273 273 273 273 273 273 273 273 273 273 272 273 273 273 273 273 273 273 273 273 273 273 273 273 273 273 273 274 274 274 275 275 275 276 276 277 278 279 280 281 282 283 284 285 285 286 286 287 287 287 288 288 288 288 287 286 284 281
272 272 272 272 272 272 272 272 272 272 272 272 272 272 272 272 272 272 272 272 272 272 272 272 272 272 272 272 272 272 272 272 272 272 272 272 272 272 272 272 272 272 272 272 272 272 272 271 271 271 271 271 271 271 271 272 272 272 273 273 274 275 276 277 278 279 280 281 283 284 284 285 286 286 287 287 287 288 288 288 288 288 287 285 283 281
273 272 272 272 272 272 272 272 272 272 271 271 271 271 271 271 271 271 271 271 271 271 271 271 271 271 271 271 271 271 271 271 271 271 271 271 271 271 271 271 271 271 271 270 270 270 269 269 269 268 268 268 269 269 269 270 270 271 271 272 273 274 275 276 278 279 280 282 283 284 284 285 286 286 287 288 288 288 288 288 288 287 286 284 282 280
272 272 272 272 272 272 272 271 271 271 271 271 271 271 270 270 271 271 270 270 270 270 270 270 270 269 269 269 269 269 269 269 269 269 269 270 270 269 269 269 269 269 269 269 268 268 267 267 267 266 266 267 267 267 268 268 269 270 271 271 272 274 275 276 278 279 280 281 282 283 284 285 286 287 288 288 289 289 289 288 287 286 285 283 281 278
272 271 271 271 271 271 271 271 271 271 270 270 270 270 270 270 270 270 270 269 269 269 269 269 268 268 268 268 268 268 268 268 268 268 268 268 268 268 268 267 267 267 267 266 266 266 265 265 265 265 265 265 265 266 267 267 268 269 270 271 272 273 274 276 277 278 279 281 281 282 283 284 286 287 288 289 289 289 289 288 286 284 283 281 278 276
271 271 271 271 271 271 271 270 270 270 270 270 270 270 269 269 269 269 269 269 268 268 268 268 267 267 267 267 266 266 266 266 266 266 266 266 266 266 266 266 265 265 265 265 264 264 264 264 264 264 264 264 265 265 266 267 267 268 269 270 272 273 274 275 276 277 278 279 280 282 283 284 285 287 288 289 289 289 289 287 285 283 280 278 275 273
271 271 271 270 270 270 270 270 270 270 270 269 269 269 269 269 269 268 268 268 268 267 267 267 267 267 266 266 265 265 265 265 264 264 264 264 264 264 264 264 264 264 263 263 263 263 263 263 263 263 263 263 264 264 265 266 267 268 269 270 271 272 273 274 275 276 277 278 279 281 282 284 285 287 288 288 289 289 288 286 284 281 278 275 273 271
271 271 270 270 270 269 270 270 270 270 269 269 269 269 268 268 269 268 268 268 267 267 267 266 266 266 266 265 265 264 264 264 263 263 263 263 263 263 263 263 262 262 262 262 262 262 262 262 262 262 263 263 263 264 264 265 266 267 268 269 270 271 272 273 274 275 276 277 278 280 281 283 285 286 287 287 288 287 287 286 283 281 277 274 271 269
271 271 270 270 270 269 269 269 269 269 269 269 269 269 268 268 268 268 268 268 267 267 266 266 266 266 265 265 265 264 264 263 263 263 262 262 262 262 262 262 261 261 261 261 261 261 261 262 262 262 262 263 263 264 264 265 265 266 267 268 269 270 271 272 273 274 275 276 278 279 281 283 284 285 286 286 286 286 286 285 283 281 277 274 271 269
270 270 270 269 269 269 269 269 269 269 269 269 269 269 269 268 267 267 267 267 267 266 266 266 266 265 265 265 265 264 263 263 262 262 262 262 261 261 261 261 261 261 261 261 261 261 261 261 261 262 262 262 263 263 264 265 265 266 267 268 269 270 271 271 272 273 274 276 277 279 281 282 284 284 285 285 285 285 285 284 283 281 279 276 273 271
269 269 269 269 268 268 268 268 268 268 268 268 268 268 268 267 267 267 267 266 266 266 266 266 265 265 265 264 264 264 263 263 262 262 261 261 261 261 260 260 260 260 260 260 260 260 261 261 261 261 262 262 263 263 264 264 265 266 266 267 268 269 270 271 272 273 274 275 277 279 280 282 283 284 284 284 284 284 284 284 283 282 280 277 274 271
268 268 268 268 267 267 267 267 267 267 267 267 267 267 267 267 267 266 266 266 265 265 265 265 265 265 264 264 264 264 263 263 262 262 261 261 260 260 260 260 260 260 260 260 260 260 260 261 261 261 262 262 262 263 263 264 265 265 266 267 268 269 269 270 271 272 274 275 277 278 280 281 282 283 283 283 283 283 283 283 282 281 279 277 274 271
267 267 267 266 266 266 266 266 266 266 266 266 266 266 266 266 266 266 266 265 265 264 264 264 264 264 264 264 264 263 263 263 262 262 261 261 260 260 260 260 260 260 260 260 260 260 260 260 260 261 261 262 262 262 263 264 264 265 266 267 267 268 269 270 271 272 273 275 276 278 279 280 281 281 281 281 281 281 281 281 281 280 278 276 274 271
266 266 266 266 265 265 265 265 265 265 265 265 265 265 265 265 265 265 265 265 264 264 264 263 263 263 263 263 263 263 263 263 262 262 261 261 260 260 260 260 260 260 260 260 260 260 260 260 260 261 261 261 262 262 262 263 264 264 265 266 267 268 268 269 270 272 273 274 276 277 278 279 280 280 279 279 279 279 279 279 279 278 276 275 273 271
266 266 265 265 265 265 264 264 264 264 264 264 264 264 264 264 264 264 264 264 264 264 263 263 263 263 263 263 262 262 262 262 262 262 261 261 261 260 260 260 260 260 260 260 260 260 260 260 260 260 260 261 261 261 262 262 263 264 264 265 266 267 268 269 270 271 272 273 275 276 277 278 278 278 277 277 276 276 276 276 276 275 274 273 272 270
265 265 265 265 265 264 264 264 263 263 263 263 263 263 263 263 263 263 263 264 264 263 263 263 263 262 262 262 262 262 262 262 262 261 261 261 261 260 260 260 260 260 260 260 260 260 260 260 260 260 260 260 261 261 261 262 262 263 264 264 265 266 267 268 269 270 271 272 274 275 275 276 276 275 274 273 273 273 273 273 273 273 272 271 270 269
265 265 265 265 265 264 264 263 263 263 263 263 262 262 262 262 262 262 263 263 263 263 263 262 262 262 262 261 261 261 261 261 261 261 261 261 260 260 260 260 260 260 260 259 259 259 259 259 259 259 260 260 260 260 261 261 261 262 263 263 264 265 266 267 268 269 270 271 272 273 274 274 274 273 272 270 270 269 270 271 271 272 271 271 270 269
265 265 265 264 264 264 264 263 263 263 262 262 262 262 261 261 262 262 262 262 262 262 262 262 262 261 261 261 261 261 261 261 261 261 261 260 260 260 260 260 260 259 259 259 259 259 259 259 259 259 259 259 259 260 260 260 261 261 262 263 263 264 265 266 266 267 268 269 270 271 271 271 271 270 269 268 267 267 268 270 271 271 272 271 271 270
266 265 265 264 264 264 264 263 263 262 262 262 262 261 261 261 261 261 261 261 261 261 261 261 261 261 260 260 260 260 260 260 260 260 260 260 260 260 259 259 259 259 259 259 258 258 258 258 258 258 258 258 259 259 259 260 260 261 261 262 262 263 264 264 265 266 267 268 268 269 269 269 269 268 267 266 266 266 268 269 271 272 272 272 272 272
266 266 265 265 264 263 263 263 263 262 262 262 261 261 261 261 261 261 261 260 260 260 260 260 260 260 260 260 260 260 260 260 260 259 259 259 259 259 259 259 259 258 258 258 258 258 257 257 257 257 258 258 258 258 259 259 259 260 260 261 261 262 263 263 264 265 265 266 267 267 267 267 267 266 265 265 265 266 268 270 271 272 273 273 273 273
266 266 265 265 264 264 263 263 262 262 262 261 261 261 261 261 260 260 260 259 259 259 259 259 259 259 259 259 259 259 259 259 259 259 259 259 258 258 258 258 258 258 257 257 257 257 257 257 257 257 257 257 257 258 258 258 259 259 260 260 261 261 262 262 263 263 264 265 265 266 266 266 265 265 265 265 265 267 268 270 271 272 272 272 272 272
266 266 265 265 264 264 263 263 262 262 262 261 261 261 260 260 259 259 259 259 258 258 258 258 258 258 258 258 258 258 258 258 258 258 258 258 258 258 257 257 257 257 257 256 256 256 256 256 256 256 256 256 257 257 257 258 258 258 259 259 260 260 261 261 262 262 263 263 264 264 265 265 265 265 265 265 266 267 268 270 271 271 271 271 270 270
266 265 265 265 264 264 263 263 262 262 261 261 261 260 260 259 258 258 258 258 258 258 257 257 257 256 256 256 257 257 257 258 257 257 257 257 257 257 256 256 256 256 256 256 255 255 255 255 255 255 256 256 256 256 257 257 257 258 258 258 259 259 259 260 260 261 262 262 263 263 264 264 264 264 264 265 266 267 268 269 270 270 270 269 268 267
265 265 264 264 264 263 263 262 262 262 261 261 260 260 259 259 258 257 257 257 257 257 256 256 256 255 255 255 255 255 256 256 256 256 256 256 256 256 256 255 255 255 255 255 255 254 254 254 254 255 255 255 255 256 256 256 256 257 257 257 257 258 258 259 259 260 260 261 262 262 263 263 264 264 264 264 265 266 267 268 268 268 268 267 266 265
264 264 264 263 263 263 262 262 262 261 261 260 260 259 259 258 257 257 256 256 256 256 255 255 255 255 254 254 254 254 254 255 255 255 255 255 255 255 255 255 254 254 254 254 254 254 254 254 254 254 254 254 254 254 255 255 255 256 256 256 256 256 257 257 258 258 259 260 260 261 262 262 263 263 263 264 264 265 266 266 267 266 266 265 264 262
263 263 263 262 262 262 261 261 261 260 260 259 259 258 258 257 257 256 256 256 255 254 254 254 254 254 253 253 252 252 253 253 254 254 254 254 254 254 254 254 253 253 253 253 253 253 253 253 253 253 253 253 253 253 253 254 254 254 255 255 255 255 255 256 256 257 258 258 259 260 260 261 261 262 262 263 263 264 264 265 265 264 264 263 262 260
262 262 262 261 261 261 260 260 259 259 258 258 257 257 257 256 256 256 255 255 254 253 253 253 253 252 252 251 251 251 251 251 252 252 253 253 253 252 252 252 252 252 252 252 252 252 252 252 252 252 252 252 252 252 252 252 252 253 253 253 253 254 254 254 255 255 256 257 258 258 259 260 260 261 261 261 262 262 263 263 263 262 262 261 260 259
262 261 260 260 260 259 259 258 258 257 257 256 256 256 255 255 255 255 254 254 253 252 252 251 251 251 251 250 250 250 249 250 250 251 251 251 251 251 251 251 251 251 251 250 250 250 251 251 251 250 251 251 251 251 251 251 251 251 252 252 252 252 253 253 253 254 255 256 256 257 258 258 259 259 259 260 260 260 261 261 261 261 260 259 258 257
261 260 259 259 258 258 257 257 257 256 256 255 255 254 254 254 254 253 253 253 252 251 251 250 250 250 249 249 249 248 248 248 249 249 250 250 250 250 249 249 249 250 250 249 249 249 249 250 249 249 249 249 250 250 250 250 250 250 250 250 251 251 251 252 252 253 254 254 255 256 256 257 257 258 258 258 258 259 259 259 259 259 258 258 257 255
260 259 258 258 257 257 256 256 255 255 254 254 253 253 253 252 252 252 252 251 251 250 249 249 249 248 248 248 247 247 247 247 247 248 248 248 248 248 248 248 248 248 248 248 248 248 248 248 248 248 248 248 249 249 249 249 249 249 249 249 249 250 250 250 251 252 252 253 254 254 255 255 256 256 256 256 257 257 258 258 258 258 257 256 255 254
259 258 257 257 256 255 255 254 254 253 253 252 252 252 251 251 251 250 250 249 249 249 248 248 247 247 247 246 246 245 245 245 245 246 247 247 247 247 247 246 246 246 247 247 247 247 247 247 247 247 247 247 247 247 248 248 248 248 248 248 248 248 249 249 250 250 251 251 252 252 253 253 254 254 254 255 255 256 256 257 257 257 256 255 254 253
258 257 256 255 255 254 253 253 252 252 252 251 251 250 250 249 249 249 248 248 248 247 247 246 246 246 246 245 244 244 244 244 244 244 245 246 246 246 245 245 245 245 245 245 245 245 245 245 245 245 245 246 246 246 246 246 246 246 246 246 246 247 247 247 248 249 249 250 250 251 251 251 252 252 252 253 253 254 255 256 256 256 255 254 253 252
257 256 256 255 254 253 252 252 251 251 250 250 250 249 249 248 248 248 247 247 246 246 245 245 245 244 244 244 243 243 243 242 242 243 244 244 245 244 244 244 244 244 244 244 244 244 244 244 244 244 244 244 244 245 245 245 245 245 245 245 245 245 245 246 246 247 247 248 248 249 249 250 250 250 251 251 252 253 254 255 255 255 254 253 252 252
257 256 255 254 253 252 251 251 250 250 249 249 249 248 248 247 247 247 246 246 246 245 244 244 244 243 243 243 242 242 241 241 241 241 242 243 243 243 243 243 243 242 242 242 243 243 242 242 242 242 242 242 243 243 243 243 243 243 243 243 243 243 244 244 244 245 245 246 246 247 247 248 248 248 249 250 251 252 253 254 254 254 253 252 252 251
257 256 255 254 253 252 251 250 249 249 248 248 248 247 247 247 246 246 246 245 245 245 244 243 243 242 242 242 241 241 240 240 240 240 241 242 242 242 242 242 242 241 241 241 241 241 241 241 241 241 241 241 242 242 242 242 242 242 241 241 241 241 242 242 242 243 243 244 245 245 246 246 246 246 247 248 250 251 252 253 253 253 252 251 251 250
258 257 256 255 253 252 251 250 249 248 247 247 246 246 246 246 246 246 245 245 245 244 244 243 243 242 242 241 241 240 240 240 240 240 240 241 241 241 241 241 241 240 240 240 240 240 240 239 239 239 240 240 240 240 240 240 240 240 240 240 239 239 240 240 240 241 242 242 243 243 243 244 244 245 246 247 249 251 252 253 253 252 251 251 251 250
258 257 256 255 254 253 251 250 249 248 247 246 246 245 245 245 245 245 245 245 245 244 244 243 243 242 241 241 241 240 240 240 239 239 239 240 240 241 240 240 240 240 239 239 238 238 238 238 238 238 238 238 238 238 238 239 239 238 238 238 237 237 238 238 238 239 239 240 240 241 241 241 242 243 244 246 248 250 252 253 253 252 251 251 250 250
258 258 256 255 254 253 251 250 249 248 247 246 245 245 244 244 244 244 244 244 244 244 244 243 243 242 242 241 241 240 240 240 239 239 239 240 240 240 240 239 239 239 238 238 237 237 237 237 236 236 236 236 236 236 237 237 237 237 236 236 236 235 235 236 236 236 237 237 238 238 238 239 240 242 243 246 248 250 252 253 253 252 251 250 250 249
258 258 257 256 254 253 252 250 249 248 247 246 245 244 244 244 244 244 244 244 243 243 243 243 243 243 242 241 241 240 240 239 239 239 239 239 240 240 239 239 238 238 237 237 236 236 236 235 235 235 235 235 234 235 235 235 235 235 235 234 234 234 233 233 234 234 234 234 235 235 236 237 239 241 243 246 248 251 253 253 253 252 251 250 250 249
258 257 257 256 254 253 252 250 249 248 247 246 245 244 244 243 243 243 243 243 243 243 243 243 242 242 242 241 241 240 240 239 239 239 239 239 239 239 239 238 238 237 236 236 235 235 234 234 234 234 233 233 233 233 233 233 233 233 233 232 232 231 231 231 231 232 232 232 232 232 233 235 238 240 243 246 249 252 254 254 254 252 251 250 249 248
258 257 256 255 254 253 252 251 249 248 247 246 245 244 243 243 243 243 243 243 242 242 242 242 242 242 242 241 241 240 239 239 239 238 239 239 239 239 238 238 237 236 236 235 234 234 233 233 233 232 232 232 231 231 231 231 231 231 231 231 230 230 229 229 229 228 228 229 229 230 231 234 237 241 244 247 251 253 255 256 255 253 251 249 248 247
258 257 256 255 254 253 252 251 250 249 248 246 245 244 244 243 243 243 243 243 242 242 242 241 241 241 241 241 240 240 239 239 238 238 238 238 238 238 238 237 237 236 235 234 233 233 232 232 231 231 231 230 230 230 229 229 229 229 229 229 228 228 228 227 226 226 225 226 226 228 230 234 238 241 245 248 252 254 256 256 255 253 251 249 247 246
258 257 256 255 254 253 252 251 250 249 248 247 246 245 244 244 243 243 243 243 243 242 242 241 241 241 240 240 240 239 239 239 238 238 238 238 238 238 237 237 236 235 234 233 232 232 231 231 230 230 229 229 229 228 228 227 227 227 227 227 227 226 226 225 224 223 223 223 225 227 230 235 239 243 246 249 252 255 256 256 255 253 250 248 246 244
258 257 256 255 254 253 252 251 251 250 249 248 247 246 245 244 244 243 243 243 243 243 242 241 241 240 240 239 239 239 238 238 238 238 237 237 237 237 237 236 235 235 234 232 231 231 230 229 229 229 228 227 227 227 226 226 226 225 225 225 225 224 223 222 221 220 220 221 224 228 232 236 240 243 246 249 252 255 256 256 255 252 250 247 245 243
258 257 256 256 255 254 253 252 251 250 249 249 248 246 245 244 244 243 243 243 243 243 242 242 241 240 240 239 238 238 237 237 237 237 237 236 236 236 235 235 234 234 233 232 230 229 229 228 228 227 227 226 226 225 225 224 224 224 224 224 223 222 221 220 218 218 218 220 224 229 234 238 241 243 246 248 251 253 255 255 254 252 249 246 243 240
258 257 257 256 255 254 253 252 251 250 249 248 248 246 245 244 243 242 240 240 240 240 241 241 240 240 239 238 238 237 236 236 236 236 236 235 235 235 234 234 233 233 232 231 230 228 228 227 227 226 226 225 225 224 223 223 222 222 222 222 221 220 218 217 216 216 217 221 226 231 235 239 241 243 245 247 250 252 254 254 253 251 247 244 241 237
258 257 257 256 255 254 253 251 250 249 248 248 247 245 244 243 241 238 235 232 232 233 235 237 238 238 238 237 237 236 235 235 235 235 235 234 234 234 233 233 232 231 231 230 228 227 226 226 225 225 225 224 223 223 222 221 221 220 220 220 219 217 216 214 214 215 218 223 228 233 237 239 241 242 244 245 248 251 252 253 251 249 245 241 237 233
258 257 256 256 255 253 252 251 249 248 247 246 245 244 242 241 238 234 229 224 223 226 229 232 234 235 235 235 235 235 234 233 233 234 234 233 233 233 232 232 231 230 229 228 227 226 225 224 224 223 223 222 222 221 220 220 219 219 218 218 217 215 213 212 213 215 220 225 230 234 238 240 241 241 242 244 246 249 250 250 249 246 242 238 233 229
Height
5658 5657 5657 5657 5657 5657 5656 5656 5657 5657 5656 5657 5657 5658 5657 5657 5657 5657 5657 5657 5657 5657 5657 5657 5657 5657 5657 5657 5658 5658 5658 5658 5658 5659 5659 5659 5659 5659 5660 5660 5660 5660 5661 5661 5661 5661 5660 5660 5660 5660 5660 5660 5660 5660 5660 5660 5660 5660 5660 5659 5659 5659 5659 5659 5658 5658 5658 5657 5657 5657 5656 5656 5655 5655 5655 5655 5654 5654 5654 5654 5653 5653 5653 5653 5653 5652
5653 5652 5652 5651 5652 5652 5651 5651 5652 5652 5652 5652 5652 5652 5652 5652 5652 5652 5652 5652 5652 5652 5652 5652 5652 5653 5653 5653 5653 5653 5654 5654 5654 5654 5655 5655 5655 5655 5656 5656 5656 5656 5656 5656 5656 5656 5656 5656 5656 5656 5656 5656 5656 5656 5656 5656 5656 5656 5656 5656 5656 5656 5656 5656 5655 5655 5655 5654 5654 5654 5654 5653 5653 5652 5652 5651 5651 5651 5651 5650 5650 5650 5650 5650 5650 5650
5648 5648 5647 5647 5647 5647 5646 5646 5647 5647 5647 5647 5647 5647 5647 5647 5647 5647 5647 5647 5647 5647 5648 5648 5648 5648 5648 5648 5649 5649 5649 5649 5650 5650 5650 5651 5651 5651 5651 5651 5652 5652 5652 5652 5652 5652 5652 5652 5652 5652 5652 5652 5652 5652 5653 5653 5653 5653 5653 5653 5653 5653 5652 5652 5652 5652 5651 5651 5651 5650 5650 5650 5650 5649 5649 5648 5648 5648 5647 5647 5647 5646 5646 5646 5647 5646
5643 5642 5642 5642 5642 5641 5641 5641 5641 5642 5642 5642 5642 5642 5642 5642 5642 5642 5643 5643 5643 5643 5643 5643 5643 5643 5644 5644 5644 5644 5645 5645 5645 5646 5646 5646 5646 5647 5647 5647 5648 5648 5648 5648 5649 5649 5649 5649 5649 5649 5649 5649 5649 5649 5649 5649 5650 5650 5650 5650 5650 5650 5649 5649 5649 5649 5648 5648 5647 5647 5647 5647 5647 5646 5646 5646 5645 5645 5644 5644 5644 5643 5643 5643 5643 5643
5638 5637 5637 5637 5637 5636 5636 5636 5636 5637 5637 5637 5637 5637 5638 5638 5638 5638 5638 5638 5638 5638 5638 5639 5639 5639 5639 5639 5640 5640 5640 5641 5641 5641 5642 5642 5642 5643 5643 5643 5644 5644 5644 5645 5645 5645 5645 5645 5645 5645 5645 5646 5646 5646 5646 5646 5646 5646 5646 5646 5646 5646 5646 5646 5646 5646 5645 5645 5645 5644 5644 5644 5644 5644 5644 5644 5643 5642 5642 5641 5641 5640 5640 5640 5640 5640
5632 5632 5632 5632 5631 5631 5631 5631 5631 5632 5632 5632 5632 5633 5633 5633 5633 5633 5633 5634 5634 5634 5634 5634 5634 5635 5635 5635 5635 5636 5636 5636 5637 5637 5637 5638 5638 5639 5639 5640 5640 5640 5641 5641 5641 5641 5641 5641 5641 5642 5642 5642 5642 5643 5643 5643 5643 5643 5643 5643 5643 5643 5643 5643 5643 5642 5642 5642 5642 5641 5641 5641 5641 5641 5641 5641 5640 5640 5639 5638 5638 5637 5637 5636 5636 5636
5627 5627 5627 5626 5626 5626 5626 5626 5626 5627 5627 5627 5627 5628 5628 5628 5629 5629 5629 5629 5629 5629 5630 5630 5630 5630 5630 5631 5631 5631 5632 5632 5633 5633 5634 5634 5634 5635 5635 5636 5636 5636 5636 5637 5637 5637 5637 5637 5638 5638 5638 5639 5639 5639 5640 5640 5640 5640 5640 5640 5640 5640 5640 5640 5640 5640 5639 5639 5639 5639 5638 5638 5638 5638 5637 5637 5637 5637 5636 5636 5635 5634 5634 5633 5633 5633
5621 5621 5622 5622 5621 5621 5621 5621 5621 5622 5622 5622 5622 5623 5624 5624 5624 5624 5625 5625 5625 5625 5625 5625 5626 5626 5626 5626 5626 5627 5627 5628 5629 5629 5630 5630 5630 5631 5631 5631 5632 5632 5632 5633 5633 5633 5634 5634 5634 5635 5635 5635 5636 5636 5636 5636 5636 5637 5637 5637 5637 5637 5637 5637 5637 5636 5636 5636 5636 5636 5636 5635 5635 5635 5634 5634 5634 5634 5633 5633 5632 5631 5631 5631 5630 5630
5616 5616 5617 5617 5616 5616 5616 5616 5617 5617 5617 5617 5618 5618 5619 5619 5620 5620 5620 5620 5620 5621 5621 5621 5621 5621 5622 5622 5622 5623 5623 5624 5625 5625 5626 5626 5626 5627 5627 5627 5628 5628 5629 5629 5629 5630 5630 5630 5631 5631 5631 5632 5632 5633 5633 5633 5633 5634 5634 5634 5634 5634 5634 5634 5634 5634 5634 5633 5633 5633 5633 5632 5632 5632 5631 5631 5631 5631 5630 5630 5629 5629 5628 5628 5627 5627
5610 5611 5611 5611 5611 5611 5611 5611 5611 5612 5612 5612 5612 5613 5614 5614 5615 5615 5616 5616 5616 5616 5616 5616 5616 5617 5617 5618 5618 5619 5619 5620 5621 5621 5621 5622 5622 5623 5623 5623 5624 5624 5625 5625 5625 5626 5626 5626 5627 5627 5628 5628 5629 5629 5630 5630 5630 5630 5630 5630 5630 5630 5631 5631 5631 5631 5631 5631 5630 5630 5630 5630 5629 5629 5628 5628 5628 5627 5627 5627 5626 5626 5626 5626 5625 5625
5605 5605 5606 5605 5606 5606 5606 5606 5606 5607 5607 5607 5607 5608 5609 5610 5610 5610 5610 5611 5611 5611 5611 5612 5612 5613 5613 5613 5614 5615 5615 5616 5616 5617 5617 5618 5618 5618 5619 5619 5620 5620 5621 5621 5621 5622 5622 5623 5623 5624 5624 5625 5625 5626 5626 5626 5626 5626 5626 5627 5627 5627 5627 5627 5627 5627 5627 5627 5627 5627 5627 5627 5626 5626 5626 5625 5625 5624 5624 5624 5624 5623 5623 5623 5623 5622
5598 5599 5599 5599 5600 5601 5601 5601 5601 5602 5602 5602 5602 5602 5603 5604 5605 5605 5605 5605 5606 5606 5607 5607 5608 5608 5609 5609 5609 5610 5611 5611 5612 5612 5613 5613 5614 5614 5615 5615 5616 5616 5616 5617 5617 5618 5618 5619 5619 5620 5621 5621 5621 5622 5622 5622 5623 5623 5623 5623 5624 5624 5624 5624 5624 5624 5624 5624 5624 5624 5624 5624 5623 5623 5623 5622 5622 5621 5621 5621 5621 5621 5621 5620 5620 5620
5592 5593 5593 5593 5594 5595 5595 5596 5596 5596 5596 5596 5596 5597 5597 5598 5599 5600 5600 5600 5601 5601 5602 5602 5603 5604 5604 5604 5605 5605 5606 5607 5607 5608 5609 5609 5610 5610 5611 5611 5611 5612 5612 5613 5613 5614 5615 5615 5616 5616 5617 5617 5618 5618 5618 5619 5619 5619 5620 5620 5620 5620 5621 5621 5621 5621 5621 5621 5621 5621 5621 5621 5620 5620 5620 5619 5619 5619 5618 5618 5618 5618 5618 5617 5617 5617
5586 5586 5586 5586 5587 5589 5590 5590 5590 5590 5591 5591 5591 5591 5591 5592 5593 5594 5594 5595 5596 5596 5597 5597 5598 5599 5599 5600 5600 5601 5601 5602 5603 5604 5604 5605 5605 5606 5606 5606 5607 5607 5608 5609 5609 5610 5611 5611 5612 5612 5613 5613 5614 5614 5615 5615 5615 5616 5616 5616 5616 5617 5617 5617 5617 5617 5617 5618 5618 5617 5617 5617 5617 5617 5617 5616 5616 5616 5616 5615 5615 5615 5615 5615 5615 5615
5579 5580 5580 5580 5581 5582 5583 5584 5584 5584 5584 5586 5586 5585 5586 5586 5587 5588 5589 5589 5590 5591 5592 5592 5593 5594 5595 5595 5595 5596 5596 5597 5598 5599 5600 5600 5601 5601 5602 5602 5602 5603 5604 5605 5605 5606 5606 5607 5608 5608 5609 5610 5610 5611 5611 5611 5611 5612 5612 5612 5613 5613 5613 5614 5614 5614 5614 5614 5614 5614 5614 5614 5614 5614 5614 5614 5613 5613 5613 5613 5612 5612 5612 5612 5612 5612
5573 5573 5573 5574 5575 5576 5577 5578 5578 5578 5578 5579 5579 5579 5579 5580 5581 5582 5583 5583 5584 5585 5586 5586 5587 5588 5590 5590 5590 5590 5591 5591 5593 5594 5596 5596 5596 5596 5597 5597 5598 5598 5600 5600 5601 5601 5602 5603 5604 5604 5605 5606 5606 5606 5607 5607 5608 5608 5608 5609 5609 5609 5610 5610 5610 5611 5611 5611 5611 5611 5611 5611 5611 5611 5611 5611 5611 5611 5610 5610 5610 5610 5610 5610 5610 5610
5566 5566 5566 5567 5568 5570 5571 5571 5571 5571 5572 5573 5573 5573 5574 5574 5574 5575 5576 5577 5578 5579 5580 5581 5582 5583 5584 5585 5585 5585 5586 5586 5587 5589 5591 5591 5591 5591 5593 5593 5593 5594 5595 5596 5596 5597 5598 5599 5600 5600 5601 5601 5602 5602 5603 5603 5604 5604 5605 5605 5606 5606 5606 5606 5607 5607 5607 5607 5608 5608 5608 5608 5608 5608 5608 5608 5608 5608 5608 5608 5607 5608 5608 5608 5608 5608
5559 5560 5560 5561 5561 5562 5564 5565 5565 5566 5566 5566 5566 5567 5567 5568 5568 5569 5570 5571 5572 5573 5574 5575 5576 5577 5578 5579 5579 5580 5581 5581 5581 5583 5585 5586 5586 5587 5588 5589 5589 5590 5591 5591 5592 5593 5594 5595 5595 5596 5596 5597 5598 5598 5599 5599 5600 5601 5601 5601 5602 5602 5603 5603 5603 5604 5604 5604 5604 5605 5605 5605 5605 5605 5605 5605 5605 5605 5605 5605 5605 5605 5605 5605 5605 5605
5551 5553 5554 5554 5554 5555 5556 5557 5558 5559 5560 5560 5560 5560 5560 5561 5562 5563 5563 5564 5566 5567 5568 5569 5570 5572 5573 5573 5573 5574 5576 5576 5576 5577 5579 5581 5581 5582 5583 5584 5584 5585 5586 5586 5587 5588 5589 5590 5591 5591 5592 5593 5594 5594 5595 5596 5596 5596 5597 5598 5598 5599 5599 5600 5600 5600 5601 5601 5601 5601 5602 5602 5602 5602 5602 5602 5602 5602 5602 5603 5603 5603 5603 5603 5603 5603
5544 5546 5546 5547 5547 5548 5549 5550 5551 5553 5553 5552 5552 5553 5553 5554 5556 5557 5558 5559 5560 5561 5561 5563 5564 5566 5567 5567 5567 5568 5570 5571 5571 5572 5573 5575 5576 5577 5578 5579 5580 5580 5581 5582 5583 5584 5585 5585 5586 5587 5588 5588 5589 5590 5591 5591 5592 5593 5593 5594 5595 5595 5596 5596 5596 5597 5597 5598 5598 5598 5599 5599 5599 5599 5599 5599 5600 5600 5600 5600 5600 5600 5600 5600 5600 5600
5536 5537 5539 5540 5541 5540 5541 5542 5544 5546 5546 5545 5545 5546 5546 5548 5550 5551 5551 5553 5553 5554 5555 5557 5558 5559 5561 5562 5562 5563 5564 5566 5566 5566 5568 5570 5571 5571 5573 5574 5575 5575 5576 5577 5578 5579 5580 5581 5581 5582 5583 5584 5585 5586 5586 5587 5588 5589 5589 5590 5591 5591 5592 5593 5593 5594 5594 5595 5595 5595 5595 5596 5596 5596 5596 5596 5597 5597 5597 5597 5597 5597 5597 5597 5597 5597
5527 5529 5531 5533 5533 5533 5533 5535 5536 5537 5538 5538 5538 5539 5540 5542 5543 5544 5545 5546 5547 5547 5549 5550 5552 5553 5555 5556 5556 5557 5559 5560 5560 5561 5562 5564 5565 5566 5568 5569 5570 5570 5571 5572 5573 5574 5575 5576 5577 5578 5579 5579 5580 5581 5582 5583 5584 5585 5586 5586 5587 5588 5589 5589 5590 5590 5591 5591 5591 5592 5592 5592 5593 5593 5593 5594 5594 5594 5594 5595 5595 5595 5595 5594 5594 5594
5519 5521 5522 5524 5525 5526 5526 5527 5528 5529 5530 5531 5531 5532 5534 5536 5537 5537 5538 5539 5540 5541 5542 5544 5546 5547 5549 5550 5551 5551 5553 5553 5554 5555 5557 5558 5559 5561 5562 5564 5564 5565 5566 5567 5568 5569 5570 5571 5572 5573 5574 5575 5576 5577 5578 5579 5580 5581 5582 5582 5583 5584 5585 5586 5586 5587 5587 5588 5588 5589 5589 5589 5590 5590 5590 5591 5591 5591 5591 5591 5591 5591 5591 5591 5591 5591
5510 5511 5513 5515 5516 5517 5518 5519 5521 5521 5523 5524 5525 5526 5527 5529 5530 5530 5531 5532 5533 5534 5536 5537 5539 5541 5542 5544 5545 5546 5546 5547 5548 5550 5551 5552 5554 5555 5557 5558 5559 5560 5561 5562 5563 5564 5565 5566 5567 5568 5570 5571 5571 5572 5574 5575 5576 5577 5578 5579 5580 5581 5581 5582 5583 5583 5584 5584 5585 5585 5586 5586 5586 5586 5587 5587 5588 5588 5588 5589 5589 5589 5589 5589 5588 5588
5501 5502 5504 5505 5507 5508 5510 5511 5512 5513 5515 5516 5517 5518 5520 5521 5522 5522 5523 5524 5526 5527 5529 5531 5532 5534 5536 5538 5540 5540 5540 5541 5543 5544 5545 5546 5548 5550 5551 5553 5554 5554 5555 5556 5558 5559 5560 5561 5562 5564 5565 5566 5567 5568 5569 5570 5571 5573 5574 5575 5576 5577 5578 5578 5579 5580 5580 5581 5581 5582 5582 5583 5583 5583 5584 5584 5585 5585 5586 5586 5586 5586 5586 5586 5586 5586
5491 5492 5494 5496 5497 5499 5500 5501 5503 5505 5506 5507 5509 5510 5511 5513 5514 5515 5516 5517 5519 5521 5522 5524 5525 5527 5530 5532 5534 5534 5534 5535 5536 5538 5539 5541 5542 5544 5545 5547 5548 5549 5550 5551 5553 5554 5555 5556 5557 5559 5561 5561 5563 5564 5565 5566 5567 5568 5570 5571 5572 5573 5574 5575 5575 5576 5577 5577 5578 5578 5579 5579 5580 5580 5581 5581 5581 5582 5582 5583 5583 5583 5583 5583 5583 5583
5481 5483 5484 5486 5487 5489 5490 5492 5494 5496 5497 5499 5500 5501 5503 5505 5506 5507 5508 5509 5512 5514 5515 5516 5518 5520 5523 5526 5527 5528 5528 5529 5530 5531 5533 5535 5536 5537 5539 5541 5543 5544 5545 5546 5547 5549 5550 5551 5553 5554 5556 5557 5558 5560 5561 5562 5563 5564 5566 5567 5568 5569 5570 5571 5572 5572 5573 5574 5574 5575 5575 5576 5576 5577 5577 5578 5578 5579 5580 5580 5580 5581 5581 5581 5581 5581
5471 5473 5474 5476 5477 5479 5481 5482 5484 5486 5488 5490 5491 5493 5494 5496 5497 5498 5499 5502 5505 5507 5507 5508 5510 5513 5516 5519 5520 5521 5523 5523 5524 5525 5526 5529 5530 5531 5533 5536 5537 5538 5539 5541 5542 5543 5545 5546 5548 5550 5551 5552 5554 5555 5556 5557 5559 5560 5561 5562 5564 5565 5566 5567 5568 5569 5569 5570 5571 5571 5572 5572 5573 5574 5574 5575 5576 5576 5576 5577 5578 5578 5578 5578 5578 5578
5461 5462 5464 5466 5467 5469 5471 5473 5475 5476 5478 5480 5482 5484 5485 5486 5488 5489 5491 5494 5497 5499 5499 5500 5503 5506 5509 5511 5513 5515 5516 5517 5517 5518 5520 5523 5524 5525 5527 5530 5531 5532 5533 5535 5536 5538 5540 5541 5543 5545 5546 5548 5549 5551 5552 5553 5555 5556 5557 5558 5560 5561 5562 5563 5564 5565 5566 5566 5567 5568 5568 5569 5570 5570 5571 5572 5572 5573 5574 5574 5575 5575 5575 5576 5576 5576
5451 5452 5454 5456 5457 5459 5461 5463 5464 5466 5468 5470 5472 5474 5475 5477 5479 5481 5483 5486 5489 5490 5491 5493 5495 5499 5501 5504 5506 5508 5509 5511 5512 5513 5514 5516 5517 5518 5521 5524 5525 5526 5528 5530 5531 5532 5534 5536 5538 5540 5541 5542 5544 5546 5547 5549 5550 5551 5553 5554 5556 5557 5558 5559 5560 5561 5562 5563 5564 5564 5565 5566 5566 5567 5568 5569 5569 5570 5571 5571 5572 5572 5572 5573 5573 5573
5441 5442 5444 5445 5446 5448 5450 5452 5454 5455 5457 5459 5461 5463 5465 5467 5469 5471 5474 5477 5480 5481 5483 5485 5487 5490 5493 5496 5498 5501 5502 5505 5506 5506 5507 5508 5510 5511 5515 5517 5518 5519 5521 5524 5525 5526 5528 5531 5533 5535 5536 5537 5539 5541 5542 5544 5546 5547 5549 5550 5551 5553 5554 5555 5556 5557 5558 5559 5560 5561 5561 5562 5563 5564 5565 5566 5566 5567 5568 5568 5569 5569 5570 5570 5570 5571
5431 5432 5433 5434 5436 5437 5440 5441 5443 5445 5447 5449 5451 5453 5455 5457 5459 5462 5465 5467 5470 5473 5475 5477 5479 5481 5485 5488 5491 5493 5496 5500 5501 5500 5500 5501 5503 5505 5509 5511 5512 5513 5516 5518 5520 5521 5523 5525 5527 5530 5531 5533 5534 5536 5538 5540 5541 5543 5544 5546 5547 5548 5550 5551 5552 5553 5555 5556 5556 5557 5558 5559 5560 5561 5561 5562 5563 5564 5565 5566 5566 5566 5567 5567 5568 5568
5420 5421 5422 5424 5425 5427 5429 5431 5432 5434 5436 5438 5441 5443 5445 5447 5450 5452 5455 5457 5461 5463 5466 5468 5470 5473 5476 5480 5483 5486 5490 5493 5493 5493 5493 5494 5496 5498 5502 5505 5506 5508 5510 5512 5514 5516 5518 5520 5522 5524 5526 5528 5529 5531 5533 5535 5537 5538 5540 5541 5543 5544 5546 5547 5549 5550 5551 5552 5553 5554 5555 5556 5556 5557 5558 5559 5560 5561 5561 5562 5563 5564 5564 5564 5565 5566
5408 5410 5412 5413 5415 5417 5419 5420 5422 5424 5426 5428 5431 5433 5435 5437 5440 5442 5445 5447 5451 5454 5456 5459 5461 5464 5468 5471 5475 5478 5482 5485 5486 5486 5486 5487 5489 5491 5495 5498 5500 5502 5504 5506 5508 5511 5513 5515 5517 5519 5521 5523 5525 5526 5528 5530 5532 5534 5536 5537 5539 5540 5542 5543 5545 5546 5547 5548 5549 5550 5551 5552 5553 5554 5555 5556 5557 5558 5559 5559 5560 5561 5561 5561 5562 5563
5397 5399 5401 5403 5405 5407 5409 5410 5412 5413 5416 5418 5420 5423 5425 5428 5430 5432 5435 5437 5441 5444 5447 5450 5453 5456 5459 5462 5466 5470 5473 5476 5478 5479 5480 5481 5482 5485 5488 5491 5494 5496 5498 5500 5502 5505 5508 5510 5512 5514 5516 5517 5520 5522 5524 5526 5528 5530 5531 5533 5535 5536 5538 5539 5541 5542 5543 5544 5546 5546 5548 5549 5550 5551 5552 5553 5554 5555 5556 5556 5557 5558 5558 5559 5559 5560
5386 5389 5391 5393 5395 5397 5399 5401 5402 5404 5406 5408 5410 5413 5416 5418 5420 5422 5425 5428 5431 5435 5438 5441 5444 5447 5450 5454 5458 5461 5465 5467 5470 5471 5473 5473 5475 5478 5481 5484 5487 5490 5493 5495 5497 5499 5502 5504 5506 5508 5511 5512 5514 5516 5519 5521 5524 5526 5527 5529 5531 5532 5534 5535 5537 5538 5539 5541 5542 5543 5544 5546 5546 5547 5549 5550 5551 5551 5552 5553 5554 5555 5555 5556 5556 5557
5376 5378 5381 5383 5385 5387 5389 5391 5393 5395 5397 5399 5401 5403 5406 5408 5411 5413 5415 5418 5421 5425 5428 5432 5435 5438 5442 5445 5449 5453 5456 5459 5461 5464 5466 5466 5468 5471 5475 5477 5481 5484 5487 5489 5491 5494 5497 5499 5501 5503 5505 5507 5509 5511 5514 5517 5519 5521 5523 5525 5526 5528 5530 5531 5533 5534 5536 5537 5538 5540 5541 5542 5543 5544 5546 5546 5547 5549 5550 5551 5551 5552 5552 5553 5554 5554
5365 5368 5370 5373 5375 5377 5380 5381 5384 5386 5388 5390 5392 5394 5396 5398 5401 5403 5406 5409 5412 5416 5420 5423 5426 5430 5434 5437 5441 5444 5447 5451 5454 5456 5458 5460 5462 5466 5469 5471 5474 5478 5481 5484 5486 5488 5491 5494 5496 5498 5500 5502 5505 5507 5510 5512 5515 5517 5519 5521 5522 5524 5526 5527 5529 5531 5532 5533 5535 5536 5537 5539 5540 5541 5542 5543 5544 5546 5546 5547 5548 5549 5550 5550 5551 5551
5355 5357 5360 5363 5366 5368 5371 5373 5375 5377 5379 5381 5383 5385 5387 5389 5392 5395 5397 5400 5403 5407 5411 5414 5418 5422 5426 5429 5433 5436 5440 5443 5446 5449 5452 5454 5457 5459 5462 5466 5468 5471 5475 5478 5481 5483 5486 5488 5491 5493 5496 5498 5501 5503 5506 5508 5510 5512 5514 5517 5519 5520 5522 5524 5525 5527 5528 5530 5531 5533 5534 5536 5537 5538 5539 5540 5541 5542 5543 5544 5545 5546 5546 5547 5548 5548
5345 5348 5351 5354 5356 5359 5361 5364 5366 5368 5370 5372 5374 5376 5379 5381 5384 5386 5389 5392 5395 5399 5402 5406 5411 5414 5418 5422 5426 5429 5432 5436 5439 5442 5446 5448 5451 5454 5456 5460 5463 5466 5469 5472 5475 5478 5480 5483 5486 5489 5491 5494 5496 5498 5501 5503 5506 5508 5511 5513 5515 5516 5518 5520 5522 5523 5525 5526 5528 5530 5531 5532 5534 5535 5536 5537 5538 5539 5540 5541 5542 5543 5544 5544 5545 5546
5336 5339 5342 5345 5347 5350 5353 5355 5357 5359 5361 5363 5366 5368 5371 5374 5376 5379 5381 5385 5388 5391 5395 5399 5403 5407 5411 5414 5418 5421 5425 5429 5433 5436 5439 5442 5445 5448 5451 5454 5457 5460 5463 5466 5470 5472 5476 5478 5481 5484 5486 5489 5491 5494 5496 5499 5501 5504 5506 5508 5510 5512 5515 5516 5518 5520 5521 5523 5525 5526 5528 5529 5531 5532 5533 5534 5535 5536 5537 5538 5539 5540 5541 5541 5542 5543
5329 5331 5334 5336 5339 5341 5344 5346 5348 5350 5352 5355 5358 5361 5363 5366 5369 5372 5374 5377 5380 5384 5387 5391 5396 5399 5403 5407 5411 5414 5418 5422 5426 5429 5433 5436 5439 5442 5445 5448 5451 5454 5458 5461 5464 5467 5471 5474 5476 5479 5482 5485 5487 5490 5492 5495 5497 5500 5502 5504 5506 5509 5511 5513 5514 5516 5518 5520 5521 5523 5525 5526 5527 5529 5530 5531 5532 5533 5535 5536 5536 5537 5538 5539 5539 5540
5321 5323 5326 5328 5331 5333 5335 5337 5340 5342 5345 5347 5350 5353 5356 5358 5361 5365 5367 5370 5373 5376 5380 5384 5388 5392 5396 5399 5403 5407 5411 5415 5419 5423 5427 5430 5433 5436 5440 5443 5446 5449 5453 5456 5459 5462 5466 5469 5472 5475 5477 5480 5483 5486 5488 5490 5493 5496 5498 5501 5503 5505 5507 5509 5511 5513 5515 5516 5518 5520 5521 5523 5524 5526 5527 5528 5529 5531 5531 5533 5533 5534 5535 5536 5536 5537
5315 5316 5318 5321 5323 5325 5328 5331 5333 5335 5337 5340 5343 5346 5348 5351 5354 5357 5360 5363 5366 5370 5374 5378 5381 5385 5388 5392 5396 5400 5405 5409 5413 5417 5421 5424 5427 5431 5434 5437 5441 5444 5447 5451 5455 5457 5461 5465 5468 5471 5473 5476 5479 5481 5484 5486 5489 5492 5494 5497 5499 5501 5503 5505 5507 5510 5512 5513 5515 5517 5518 5520 5521 5522 5524 5525 5526 5528 5529 5530 5531 5531 5532 5533 5533 5534
5308 5310 5312 5315 5317 5319 5321 5323 5325 5328 5330 5333 5336 5339 5342 5345 5348 5351 5354 5356 5360 5363 5367 5371 5375 5379 5382 5385 5389 5393 5398 5403 5407 5411 5415 5419 5422 5426 5429 5432 5436 5439 5443 5446 5450 5453 5457 5460 5463 5466 5469 5472 5475 5477 5480 5482 5486 5488 5491 5493 5496 5498 5500 5502 5504 5506 5508 5510 5512 5514 5515 5517 5518 5520 5521 5522 5524 5525 5526 5526 5527 5528 5529 5530 5530 5531
5303 5305 5307 5309 5311 5312 5315 5316 5319 5321 5324 5327 5330 5333 5336 5338 5341 5345 5348 5351 5354 5357 5360 5364 5368 5372 5375 5378 5382 5388 5392 5397 5401 5405 5409 5413 5417 5421 5424 5427 5431 5434 5438 5442 5445 5449 5452 5456 5459 5462 5465 5468 5471 5473 5476 5479 5482 5484 5487 5490 5492 5495 5497 5499 5501 5503 5505 5507 5509 5511 5512 5514 5515 5517 5518 5520 5521 5522 5523 5524 5524 5525 5526 5526 5527 5528
5298 5300 5301 5303 5305 5307 5309 5311 5314 5316 5319 5321 5324 5327 5330 5333 5336 5339 5342 5345 5348 5351 5354 5358 5362 5365 5368 5372 5377 5382 5386 5391 5395 5399 5404 5408 5412 5416 5419 5422 5426 5430 5434 5437 5441 5445 5448 5451 5455 5458 5461 5464 5466 5470 5473 5476 5478 5481 5483 5486 5489 5491 5493 5496 5497 5500 5502 5504 5506 5508 5509 5511 5513 5514 5516 5517 5518 5519 5520 5521 5521 5522 5523 5524 5524 5525
5293 5295 5297 5298 5300 5302 5304 5306 5309 5311 5314 5316 5319 5322 5325 5328 5331 5334 5337 5341 5344 5346 5350 5352 5356 5359 5363 5367 5372 5376 5381 5385 5389 5394 5398 5403 5407 5410 5414 5418 5421 5425 5429 5433 5437 5441 5444 5447 5451 5454 5457 5460 5463 5466 5469 5472 5475 5477 5480 5483 5485 5488 5490 5492 5494 5496 5499 5501 5503 5505 5506 5508 5510 5511 5512 5514 5515 5516 5517 5517 5518 5519 5520 5521 5521 5522
5289 5291 5292 5294 5296 5298 5300 5302 5305 5307 5309 5312 5314 5317 5320 5323 5326 5330 5333 5337 5340 5343 5346 5348 5350 5353 5357 5361 5366 5371 5375 5380 5384 5388 5393 5397 5401 5406 5409 5413 5417 5421 5425 5429 5433 5437 5440 5444 5447 5450 5453 5456 5460 5462 5466 5469 5471 5474 5477 5480 5482 5484 5487 5489 5491 5494 5496 5498 5500 5502 5504 5505 5506 5508 5509 5511 5511 5513 5514 5515 5515 5516 5517 5518 5519 5520
5285 5286 5288 5290 5291 5293 5296 5298 5300 5303 5305 5307 5310 5313 5316 5319 5322 5326 5330 5334 5337 5340 5342 5344 5347 5350 5352 5356 5360 5365 5370 5374 5379 5383 5388 5392 5397 5401 5405 5409 5413 5417 5421 5425 5429 5433 5437 5440 5443 5446 5450 5453 5456 5459 5462 5465 5468 5471 5474 5476 5479 5481 5484 5486 5488 5491 5493 5496 5497 5499 5501 5502 5503 5505 5506 5507 5508 5509 5511 5511 5512 5513 5514 5515 5516 5517
5281 5283 5284 5286 5287 5289 5291 5294 5296 5298 5301 5303 5306 5309 5311 5315 5318 5322 5326 5330 5333 5336 5338 5341 5343 5346 5349 5352 5356 5360 5365 5369 5374 5378 5383 5387 5392 5396 5400 5404 5409 5413 5417 5421 5425 5429 5433 5436 5440 5443 5446 5450 5453 5456 5459 5462 5465 5468 5470 5473 5476 5478 5481 5483 5485 5488 5490 5492 5494 5496 5498 5499 5500 5502 5503 5504 5505 5506 5507 5508 5509 5510 5511 5512 5513 5515